Other Public Products
Issued by NWS Charleston, SC

Home | Current Version | Previous Version | Text Only | Print | Product List | Glossary On
Versions: 1 2 3 4 5 6 7 8 9 10 11 12 13 14 15 16 17 18 19 20 21 22 23 24 25 26 27 28 29 30 31 32 33 34 35 36 37 38 39 40 41 42 43 44 45 46 47 48 49 50
000
FPUS82 KCHS 270327
OPUCHS

TEST...KCHS/KSAV Gateway Observations...TEST
National Weather Service Charleston SC
1100 PM EDT THU APR 26 2018

NOTE: "fair" indicates few or no clouds below 12,000 feet with no
significant weather and/or obstructions to visibility.

SCZ050-WAZ558-NCZ071-TXZ119-213-PAZ071-DCZ001-FLZ074-172-MI076-
NYZ176-178-MAZ016-IL014-TNZ027-NJZ106-GAZ044-MD014-270400-

...Gateway Observations for Charleston International...

CITY           SKY/WX    TMP DP  RH WIND       PRES   REMARKS
Chas Airport   MOCLDY    64  60  87 S3        29.84S
Seattle        PTCLDY    72  44  36 N9        29.86S
Charlotte      MOCLDY    56  56 100 N5        29.84R
Dallas DFW     MOCLDY    64  50  60 E7        29.97S
Dallas Love    MOCLDY    66  49  54 E6        29.99R
Philladelphia  MOCLDY    62  40  44 CALM      29.89S
Wash National  CLOUDY    62  44  51 CALM      29.85F
Baltimore      CLOUDY    59  42  53 S6        29.88R
Miami          MOCLDY    76  68  76 S6        29.96R
Detroit        MOCLDY    50  38  63 SE5       29.85F
Newark         FAIR      62  42  47 W5        29.86F
Laguardia      FAIR      60  41  49 NE6       29.86S
J F K          FAIR      60  42  51 NE6       29.87S
Boston Logan   FAIR      54  41  61 W14G21    29.84R
Ft. Lauderdale CLOUDY    78  70  76 SW6       29.94R
Chicago O`Hare MOCLDY    55  29  36 S6        29.82S
Chicago Midway FAIR      58  29  33 SE7       29.83F
Houston Bush   FAIR      65  51  60 VRB5      29.96R
Houston Hobby  MOCLDY    64  56  75 S5        29.96R
Nashville      CLOUDY    55  53  93 W5        29.90S FOG
Atlanta        MOCLDY    55  55 100 SW3       29.84S

$$

GAZ044-118-TXZ119-213-NCZ071-DCZ001-MDZ014-506-PAZ021-071-NJZ106-
NYZ176-178-MAZ106-OHZ011-021-055-MIZ076-KYZ091-ILZ014-INZ047-
MNZ060-ONZ431-270400-

...Gateway Observations for Savannah International...

CITY           SKY/WX    TMP DP  RH WIND       PRES   REMARKS
Savannah Arpt  MOCLDY    69  63  81 W9        29.84R
Atlanta        MOCLDY    55  55 100 SW3       29.84S
Charlotte      MOCLDY    56  56 100 N5        29.84R
Dallas DFW     MOCLDY    64  50  60 E7        29.97S
Houston Bush   FAIR      65  51  60 VRB5      29.96R
Wash National  CLOUDY    62  44  51 CALM      29.85F
Wash Dulles    CLOUDY    62  37  39 E8        29.85F
Baltimore      CLOUDY    59  42  53 S6        29.88R
Philadelphia   MOCLDY    62  40  44 CALM      29.89S
Newark         FAIR      62  42  47 W5        29.86F
Laguardia      FAIR      60  41  49 NE6       29.86S
J F K          FAIR      60  42  51 NE6       29.87S
Boston         FAIR      54  41  61 W14G21    29.84R
Pittsburg      CLOUDY    56  35  45 N3        29.86F
Akron          MOCLDY    48  37  65 NE8       29.87F
Cleveland      FAIR      46  35  65 SE6       29.89F
Cincinnati     FAIR      55  35  47 NW10      29.84S
Columbus       FAIR      56  46  68 E5        29.83F
Detroit        MOCLDY    50  38  63 SE5       29.85F
Chicago O`Hare MOCLDY    55  29  36 S6        29.82S
Minneapolis    FAIR      52  25  35 N8        29.93R
Indianapolis   MOCLDY    54  33  45 NW6       29.86S
Toronto Canada PTCLDY    46  34  61 VRB2      29.86S

$$




USA.gov is the U.S. government's official web portal to all federal, state and local government web resources and services.